This is the latest recevied weather packets stored in our database for station/object XE2RCS-1. If no packets are shown the sender has not sent any weather packets the latest 10 day(s).
| Time | Temp. | Humidity | Pressure | Rain* | Wind** | Luminosity | Snow |
|---|---|---|---|---|---|---|---|
| 1788363617 | 25.56° C | 45% | 1019 hPa | 0 mm | - | - | - |
| 1788363012 | 25.56° C | 45% | 1021 hPa | 0 mm | - | - | - |
| 1788362376 | 25.56° C | 46% | 1021 hPa | 0 mm | - | - | - |
| 1788361775 | 25.56° C | 46% | 1022 hPa | 0 mm | - | - | - |
| 1788361174 | 25.56° C | 46% | 1019 hPa | 0 mm | - | - | - |
| 1788360557 | 23.89° C | 57% | 1019 hPa | 0 mm | - | - | - |
| 1788359956 | 23.89° C | 70% | 1019 hPa | 0 mm | - | - | - |
| 1788359354 | 23.89° C | 70% | 1022 hPa | 0 mm | - | - | - |
| 1788358752 | 23.33° C | 70% | 1022 hPa | 0 mm | - | - | - |
| 1788358149 | 22.78° C | 68% | 1022 hPa | 0 mm | - | - | - |
| 1788357532 | 22.22° C | 58% | 1020 hPa | 0 mm | - | - | - |
| 1788356178 | 21.67° C | 73% | 1020 hPa | 0 mm | - | - | - |
| 1788355577 | 21.67° C | 73% | 1021 hPa | 0 mm | - | - | - |
| 1788354976 | 21.67° C | 74% | 1021 hPa | 0 mm | - | - | - |
| 1788354376 | 20° C | 76% | 1021 hPa | 0 mm | - | - | - |
| 1788353775 | 20° C | 77% | 1019 hPa | 0 mm | - | - | - |
| 1788353174 | 20° C | 77% | 1019 hPa | 0 mm | - | - | - |
| 1788352574 | 20° C | 76% | 1019 hPa | 0 mm | - | - | - |
| 1788351973 | 20° C | 75% | 1021 hPa | 0 mm | - | - | - |
| 1788351372 | 20° C | 72% | 1021 hPa | 0 mm | - | - | - |
| 1788350771 | 20° C | 63% | 1021 hPa | 0 mm | - | - | - |
| 1788350171 | 20° C | 64% | 1019 hPa | 0 mm | - | - | - |
| 1788349570 | 20° C | 65% | 1018 hPa | 0 mm | - | - | - |
| 1788348969 | 20° C | 64% | 1018 hPa | 0 mm | - | - | - |
| 1788348368 | 20° C | 64% | 1020 hPa | 0 mm | - | - | - |
* Rain latest hour (hover to see other rain measurements)
** Current wind speed in m/s (hover to see current wind gust speed)